(136502) = 2005 JG132

Discovered at Siding Spring on 2005-05-13 by Siding Spring Survey.

Orbit

Orbit type: Main Belt

Note: WebGL enabled browser required.

epoch2023-09-13.0
epoch JD2460200.5
perihelion date2022-11-22.24970
perihelion JD2459905.74970
argument of perihelion (°)254.51458
ascending node (°)13.12406
inclination (°)13.93443
eccentricity0.1802239
perihelion distance (AU)2.6189303
Tisserand w.r.t. Jupiter3.1
ΔV w.r.t. Earth (km/sec)11.0
semimajor axis (AU)3.1946897
mean anomaly (°)50.87625
mean daily motion (°/day)0.17260800
aphelion distance (AU)3.770
period (years)5.71
P-vector [x]-0.04764122
P-vector [y]-0.79905106
P-vector [z]-0.59937277
Q-vector [x]0.99736681
Q-vector [y]-0.00520644
Q-vector [z]-0.07233489
absolute magnitude14.77
phase slope0.15
uncertainty0
referenceMPEC 2024-A48
observations used782
oppositions19
arc length (days)11218
first opposition used1993
last opposition used2023
residual rms (arc-secs)0.73
perturbers coarse indicatorM-v
perturbers precise indicator003Ek
first observation date used1993-02-22.0
last observation date used2023-11-10.0
computer nameMPCLINUX
JD of orbit computation2456700.158680
perihelion JD uncertainty (days)2.3281E-04
argument of perihelion uncertainty (°)4.1759E-05
ascending node uncertainty (°)2.3913E-05
inclination uncertainty (°)1.1375E-05
eccentricity uncertainty 5.5193E-08
perihelion distance uncertainty (AU)1.6528E-07
Minimum Orbit Intersection Distances (in AU)
for orbit epoch: 2460200.5, reference: E2024-A48
Mercury2.16062
Venus1.9168
Earth1.64637
Mars1.18602
Jupiter1.54666
Saturn5.48381
Uranus15.0907
Neptune26.3018

Observations

799 total observations over interval: 1993 02 22.45913 – 2023 11 10.160522
These data are available for download (format description).

Date (UT) J2000 RA J2000 Dec Magn Location Ref
1993 02 22.45913 11 44 19.54 +11 54 34.5 19.8 V 691 – Steward Observatory, Kitt Peak-Spacewatch MPS 137471
1993 02 22.48113 11 44 18.49 +11 54 38.1   691 – Steward Observatory, Kitt Peak-Spacewatch MPS 137471
1993 02 22.50493 11 44 17.43 +11 54 41.5   691 – Steward Observatory, Kitt Peak-Spacewatch MPS 137471
1995 09 25.68925 01 11 35.07 +07 44 31.0   327 – Peking Observatory, Xinglong Station MPS 137471
1995 09 25.70281 01 11 34.44 +07 44 30.5   327 – Peking Observatory, Xinglong Station MPS 137471
1995 09 25.71593 01 11 33.74 +07 44 29.3   327 – Peking Observatory, Xinglong Station MPS 137471
1995 09 25.72912 01 11 33.14 +07 44 27.9 20.1 V 327 – Peking Observatory, Xinglong Station MPS 137471
1999 03 23.31418 13 07 36.12 -06 47 14.8 18.4 R 703 – Catalina Sky Survey MPS 137471
1999 03 23.33117 13 07 35.26 -06 47 13.4 18.5 R 703 – Catalina Sky Survey MPS 137471
1999 03 23.34796 13 07 34.46 -06 47 12.8 19.1 R 703 – Catalina Sky Survey MPS 137471
1999 03 23.36398 13 07 33.69 -06 47 13.3 18.2 R 703 – Catalina Sky Survey MPS 137471
1999 04 07.32403 12 54 23.02 -06 38 53.8 18.6 R 699 – Lowell Observatory-LONEOS MPS 137471
1999 04 07.33931 12 54 22.11 -06 38 52.0   699 – Lowell Observatory-LONEOS MPS 137471
1999 04 07.35459 12 54 21.29 -06 38 52.2   699 – Lowell Observatory-LONEOS MPS 137471
2001 10 15.33358 02 17 23.87 +21 00 11.4 20.3   704 – Lincoln Laboratory ETS, New Mexico MPS 137471
2001 10 15.34935 02 17 23.06 +21 00 11.3 20.5   704 – Lincoln Laboratory ETS, New Mexico MPS 137471
2001 10 15.36512 02 17 22.25 +21 00 11.3 20.4   704 – Lincoln Laboratory ETS, New Mexico MPS 137471
2004 02 15.27247 10 07 57.97 +27 20 56.9 19.1   704 – Lincoln Laboratory ETS, New Mexico MPS 137471
2004 02 15.28407 10 07 57.29 +27 20 59.1 19.5   704 – Lincoln Laboratory ETS, New Mexico MPS 137471
2004 02 15.29572 10 07 56.65 +27 20 59.8 19.4   704 – Lincoln Laboratory ETS, New Mexico MPS 137471
2004 02 15.30732 10 07 56.12 +27 21 02.2 19.7   704 – Lincoln Laboratory ETS, New Mexico MPS 137471
2004 03 18.14837 09 41 48.54 +27 32 38.0 18.8   644 – Palomar Mountain/NEAT MPS 137471
2004 03 18.16896 09 41 47.84 +27 32 36.4 19.4   644 – Palomar Mountain/NEAT MPS 137471
2004 03 18.19017 09 41 47.03 +27 32 34.0 19.4   644 – Palomar Mountain/NEAT MPS 137471
2004 03 25.23022 09 38 00.12 +27 14 23.8 19.9 C 704 – Lincoln Laboratory ETS, New Mexico MPS 294197
2004 03 25.24119 09 37 59.75 +27 14 20.2 20.3 C 704 – Lincoln Laboratory ETS, New Mexico MPS 294197
2004 03 25.26309 09 37 59.06 +27 14 16.2 19.2 C 704 – Lincoln Laboratory ETS, New Mexico MPS 294197
2004 03 25.27396 09 37 58.68 +27 14 13.1 19.9 C 704 – Lincoln Laboratory ETS, New Mexico MPS 294197
2005 04 11.63069 15 14 00.41 -28 33 04.0 19.2 R E12 – Siding Spring Survey MPS 137471
2005 04 11.64189 15 13 59.98 -28 33 08.3 18.7 R E12 – Siding Spring Survey MPS 137471
2005 04 11.65373 15 13 59.53 -28 33 11.4 19.0 R E12 – Siding Spring Survey MPS 137471
2005 04 11.66542 15 13 59.06 -28 33 15.2 19.2 R E12 – Siding Spring Survey MPS 137471
2005 04 28.70343 15 00 18.54 -29 39 19.2 18.6 R E12 – Siding Spring Survey MPS 137087
2005 04 28.71487 15 00 17.86 -29 39 20.3 18.7 R E12 – Siding Spring Survey MPS 137087
2005 04 28.72626 15 00 17.18 -29 39 22.3 18.3 R E12 – Siding Spring Survey MPS 137087
2005 04 28.73785 15 00 16.44 -29 39 23.1 18.0 R E12 – Siding Spring Survey MPS 137087
2005 05 13.58931 14 45 30.20 -30 00 59.7 18.5 R E12 – Siding Spring Survey MPS 134997
2005 05 13.60624 14 45 29.17 -30 00 59.2 18.2 R E12 – Siding Spring Survey MPS 134997
2005 05 13.62317 14 45 28.05 -30 00 59.6 18.6 R E12 – Siding Spring Survey MPS 134997
2005 05 13.64004 14 45 27.07 -30 01 00.1 18.7 R E12 – Siding Spring Survey MPS 134997
2005 05 14.60410 14 44 29.88 -30 01 15.7 19.2 R E12 – Siding Spring Survey MPS 134997
2005 05 14.61075 14 44 29.46 -30 01 15.9 18.2 R E12 – Siding Spring Survey MPS 134997
2005 05 14.61734 14 44 29.05 -30 01 15.5 18.4 R E12 – Siding Spring Survey MPS 134997
2005 05 14.62402 14 44 28.62 -30 01 15.3 18.4 R E12 – Siding Spring Survey MPS 134997
2006 08 21.42306 23 44 49.68 -13 05 28.0 19.3 R 644 – Palomar Mountain/NEAT MPS 176063
2006 08 21.43406 23 44 49.19 -13 05 29.5 19.1 R 644 – Palomar Mountain/NEAT MPS 176063
2006 08 21.44498 23 44 48.72 -13 05 30.9 19.3 R 644 – Palomar Mountain/NEAT MPS 176063
2006 08 23.46011 23 43 20.11 -13 09 53.7 18.8 R 644 – Palomar Mountain/NEAT MPS 176063
2006 08 23.47475 23 43 19.46 -13 09 55.7 19.0 R 644 – Palomar Mountain/NEAT MPS 176063
2006 08 23.48826 23 43 18.83 -13 09 57.2 18.9 R 644 – Palomar Mountain/NEAT MPS 176063
2006 08 30.31174 23 37 53.26 -13 24 18.8 18.5 R 699 – Lowell Observatory-LONEOS MPS 177071
2006 08 30.33580 23 37 52.03 -13 24 22.5   699 – Lowell Observatory-LONEOS MPS 177071
2006 08 30.35887 23 37 50.88 -13 24 24.7   699 – Lowell Observatory-LONEOS MPS 177071
2006 08 30.38649 23 37 49.38 -13 24 28.3   699 – Lowell Observatory-LONEOS MPS 177071
2006 09 14.28288 23 24 43.13 -13 47 09.0 18.8 R 644 – Palomar Mountain/NEAT MPS 180686
2006 09 14.30360 23 24 41.96 -13 47 10.2 18.7 R 644 – Palomar Mountain/NEAT MPS 180686
2006 09 14.31859 23 24 41.22 -13 47 12.4 18.2 V 703 – Catalina Sky Survey MPS 179017
2006 09 14.32574 23 24 40.78 -13 47 12.3 18.7 V 703 – Catalina Sky Survey MPS 179017
2006 09 14.32926 23 24 40.56 -13 47 11.7 18.8 R 644 – Palomar Mountain/NEAT MPS 180686
2006 09 14.33288 23 24 40.32 -13 47 12.1 18.9 V 703 – Catalina Sky Survey MPS 179017
2006 09 14.34002 23 24 39.92 -13 47 13.0 18.8 V 703 – Catalina Sky Survey MPS 179017
2006 09 20.21839 23 19 30.94 -13 50 38.5 19.2 R 644 – Palomar Mountain/NEAT MPS 180686
2006 09 20.24027 23 19 29.80 -13 50 39.1 19.0 R 644 – Palomar Mountain/NEAT MPS 180686
2006 09 20.26915 23 19 28.29 -13 50 39.3 18.7 R 644 – Palomar Mountain/NEAT MPS 180686
2006 09 26.18077 23 14 34.81 -13 50 00.4 19.1   704 – Lincoln Laboratory ETS, New Mexico MPS 182388
2006 09 26.20509 23 14 33.63 -13 50 01.2 19.4   704 – Lincoln Laboratory ETS, New Mexico MPS 182388
2006 09 26.21724 23 14 33.02 -13 50 01.2 19.3   704 – Lincoln Laboratory ETS, New Mexico MPS 182388
2006 09 26.27763 23 14 29.97 -13 49 59.1 19.2 V 703 – Catalina Sky Survey MPS 182388
2006 09 26.28442 23 14 29.65 -13 49 59.0 18.9 V 703 – Catalina Sky Survey MPS 182388
2006 09 26.29127 23 14 29.32 -13 49 58.8 19.2 V 703 – Catalina Sky Survey MPS 182388
2006 09 26.29810 23 14 29.04 -13 49 59.1 19.1 V 703 – Catalina Sky Survey MPS 182388
2006 09 30.19227 23 11 30.51 -13 47 05.6 19.0 V 703 – Catalina Sky Survey MPS 183567
2006 09 30.20201 23 11 30.01 -13 47 05.7 19.0 V 703 – Catalina Sky Survey MPS 183567
2006 09 30.21170 23 11 29.61 -13 47 04.0 19.3 V 703 – Catalina Sky Survey MPS 183567
2006 09 30.22138 23 11 29.25 -13 47 04.3 19.4 V 703 – Catalina Sky Survey MPS 183567
2006 10 09.16386 23 05 36.15 -13 32 57.6 20.1 R 644 – Palomar Mountain/NEAT MPS 183838
2006 10 09.18410 23 05 35.43 -13 32 55.1 19.4 R 644 – Palomar Mountain/NEAT MPS 183838
2006 10 09.20434 23 05 34.72 -13 32 52.2 19.4 R 644 – Palomar Mountain/NEAT MPS 183838
2006 11 27.08056 23 03 11.91 -09 39 58.8 20.0 V G96 – Mt. Lemmon Survey MPS 191716
2006 11 27.08721 23 03 12.09 -09 39 56.1 20.4 V G96 – Mt. Lemmon Survey MPS 191716
2006 11 27.09373 23 03 12.24 -09 39 53.8 20.3 V G96 – Mt. Lemmon Survey MPS 191716
2006 11 27.10028 23 03 12.42 -09 39 50.7 20.3 V G96 – Mt. Lemmon Survey MPS 191716
2007 01 10.08702 23 35 29.32 -03 49 30.9 20.2 V G96 – Mt. Lemmon Survey MPS 196211
2007 01 10.09154 23 35 29.58 -03 49 28.6 20.4 V G96 – Mt. Lemmon Survey MPS 196211
2007 01 10.09605 23 35 29.83 -03 49 26.0 20.5 V G96 – Mt. Lemmon Survey MPS 196211
2007 01 10.10057 23 35 30.08 -03 49 23.7 20.3 V G96 – Mt. Lemmon Survey MPS 196211
2007 10 21.39773 03 30 19.04 +30 20 51.8 19.6 V 703 – Catalina Sky Survey MPS 223257
2007 10 21.40834 03 30 18.54 +30 20 52.3 20.5 V 703 – Catalina Sky Survey MPS 223257
2007 10 21.41896 03 30 18.03 +30 20 53.7 19.8 V 703 – Catalina Sky Survey MPS 223257
2007 10 21.42958 03 30 17.64 +30 20 53.9 20.9 V 703 – Catalina Sky Survey MPS 223257
2007 11 03.36355 03 19 37.38 +30 29 08.7 19.3 V G96 – Mt. Lemmon Survey MPS 226490
2007 11 03.37020 03 19 37.02 +30 29 08.8 19.4 V G96 – Mt. Lemmon Survey MPS 226490
